This demonstration page uses our WeatherBlox Daily Observations layout. Learn more.

Left ArrowRight Arrow

30.21309, -93.2044

Hourly Observations for March 29, 2015

Temp ( °F °C ) Dew Point ( °F °C ) Humidity (%) Winds ( mph kmh ) Pressure ( in mb ) Visibility ( mi km ) Precip ( " mm )
12:15 am 00:15 Clear 58 14.2 57 13.9 98 98 Calm 30.18 1022 10 16 0.00 0.00
12:35 am 00:35 Clear 57 13.9 56 13.6 98 98 Calm 30.18 1022 10 16 0.00 0.00
12:55 am 00:55 Clear 56 13.5 56 13.1 97 97 Calm 30.18 1022 7 11 0.00 0.00
1:15 am 01:15 Clear with Mist and Fog 56 13.4 56 13.2 99 99 Calm 30.18 1022 3 5 0.00 0.00
1:35 am 01:35 Mostly Cloudy with Mist and Fog 56 13.2 56 13.1 99 99 Calm 30.18 1022 1 2 0.00 0.00
1:55 am 01:55 Cloudy with Fog 56 13.3 56 13.1 99 99 SSE 3 6 30.18 1022 0 0 0.00 0.00
2:15 am 02:15 Partly Cloudy with Mist and Fog 54 12.4 54 12.3 99 99 SSE 5 7 30.15 1021 4 6 0.00 0.00
2:35 am 02:35 Mostly Cloudy with Mist and Fog 55 12.6 55 12.6 100 100 SSE 3 6 30.15 1021 2 3 0.00 0.00
2:55 am 02:55 Mostly Cloudy with Mist and Fog 54 12.2 54 12.1 99 99 SSE 8 13 30.15 1021 2 3 0.00 0.00
3:15 am 03:15 Clear 57 13.8 57 13.7 99 99 SSE 6 9 30.15 1021 10 16 0.00 0.00
3:35 am 03:35 Clear 57 13.7 57 13.7 100 100 SSE 6 9 30.15 1021 10 16 0.00 0.00
3:55 am 03:55 Clear 56 13.6 56 13.5 99 99 SSE 7 11 30.15 1021 10 16 0.00 0.00
4:15 am 04:15 Clear 57 13.7 56 13.6 99 99 SSE 6 9 30.15 1021 10 16 0.00 0.00
4:35 am 04:35 Clear 57 13.7 56 13.5 99 99 SSE 5 7 30.15 1021 10 16 0.00 0.00
4:55 am 04:55 Clear 56 13.5 56 13.2 98 98 SSE 6 9 30.15 1021 10 16 0.00 0.00
5:15 am 05:15 Clear 56 13.5 56 13.2 98 98 SSE 6 9 30.15 1021 10 16 0.00 0.00
6:00 am 06:00 Mostly Clear 57 14 55 13 94 94 SSE 7 11 N/A 2 3 0.00 0.00
6:50 am 06:50 Mostly Clear 55 13 55 13 100 100 SSE 6 9 N/A 2 3 0.00 0.00
7:50 am 07:50 Mostly Sunny 59 15 57 14 94 94 SSE 5 7 N/A 2 3 0.00 0.00
8:50 am 08:50 Mostly Sunny 64 18 64 18 100 100 SSE 8 13 N/A 2 3 0.00 0.00
9:50 am 09:50 Partly Cloudy 72 22 64 18 78 78 SSW 14 22 N/A 2 3 0.00 0.00
10:50 am 10:50 Mostly Cloudy 73 23 63 17 69 69 SSW 16 26 N/A 2 3 0.00 0.00
11:50 am 11:50 Mostly Cloudy 75 24 61 16 61 61 SSW 18 30 N/A 2 3 0.00 0.00
12:50 pm 12:50 Mostly Cloudy 75 24 61 16 61 61 SSW 15 24 N/A 2 3 0.00 0.00
1:50 pm 13:50 Mostly Cloudy 77 25 61 16 57 57 SSW 15 24 N/A 2 3 0.00 0.00
5:55 pm 17:55 Partly Cloudy 73 23 61 16 65 65 SSW 17 28 30.15 1021 10 16 0.00 0.00
9:50 pm 21:50 Mostly Clear 66 19 63 17 88 88 S 6 9 30.18 1022 10 16 0.00 0.00
10:15 pm 22:15 Clear 63 17.1 61 16.3 95 95 S 3 6 30.18 1022 10 16 0.00 0.00
10:35 pm 22:35 Clear 64 17.6 62 16.5 93 93 S 3 6 30.18 1022 10 16 0.00 0.00
10:55 pm 22:55 Clear 61 16 60 15.5 97 97 SSE 5 7 30.18 1022 10 16 0.00 0.00
11:15 pm 23:15 Clear with Mist and Fog 60 15.4 59 15.1 98 98 SSE 7 11 30.18 1022 5 8 0.00 0.00
11:35 pm 23:35 Clear 61 16 60 15.8 99 99 S 6 9 30.18 1022 10 16 0.00 0.00
11:55 pm 23:55 Clear 62 16.8 62 16.5 98 98 S 6 9 30.18 1022 10 16 0.00 0.00

Powered by AerisWeather